Showing default

IRIDIUM 103, 41918

Orbit data source: Space-Track

IRIDIUM 103, 41918 is a payload satellite owned by Iridium (US) in LEO that was launched on Sat, 14 Jan 2017 UTC via an FALCON 9 launch vehicle from the Air Force Western Test Range (AFWTR). Payloads include a variety of satellites, spacecraft, and rockets equipped with specific instruments for various scientific and technological missions. These include communications satellites like Starlink; space stations such as the ISS; scientific satellites like the Hubble; Earth observation satellites from companies like Planet Labs, Umbra, and HawkEye 360; GPS; miniature CubeSats for education and research; and military/defense satellites.

Loading next visibility...
IRIDIUM 103 details
Identifier
41918, 2017-003B
Orbit
LEO
Last TLE update7 hours ago
Origin
Flag of USIridium (US)
ManufacturerOATK SSG Gilbert
MissionOperational Commercial Communications
Bus & MotorELITEBUS, Unknown motor
Mass860 kg wet, 700 kg dry
Launch date (UTC)
2017-01-14 (8 years ago)
Launch vehicle
FALCON 9
Launch site
Air Force Western Test Range (AFWTR)
Object type
Payload
Rocket body
Debris
Shape & HBRTrap Box + 2 Pan, 9.4 m
Radar Cross Section14.423 m², Large (>1 m²)

Expand to show TLE details & history

TLE from 7 hours ago
0 IRIDIUM 103
1 41918U 17003B   24361.23729303  .00000268  00000-0  88789-4 0  9999
2 41918  86.3969 313.2283 0001835  68.7975 291.3417 14.34218278416128
Epoch: 2024-12-26T05:41Z
Definitive object data (Epoch: 2024-12-26T05:41:42.117Z)
Latitude-0.00001°
Longitude132.58324°
Altitude780.239 km
Speed7.464 km/s
True Right ascension20h 52m 54s
True Declination0° 00' 00"
Sunlit
Object was in daylight at TLE epoch
Visualization TLE readout
Latitude83.94459°
Longitude168.64732°
Altitude790.129 km
Speed7.466 km/s
Apparent Right ascension00h 01m 57s
Apparent Declination28° 17' 27"
Sunlit
Object is in daylight
Visualization observer readout
Local Sidereal Time12:08:50
Azimuth1.633° NNE
Elevation-21.774°
Doppler factor1
Orbital elements
Apogee altitude775.942 km
Perigee altitude773.317 km
Semi-major axis7,152.767 km
Eccentricity0.0001835
Inclination86.3969°
RAAN313.2283°
Arg. of periapsis68.7975°
True anomaly291.32211°
Mean anomaly291.3417°
Eccentric anomaly291.33191°
Mean motion3.58783 °/min
BSTAR0.000088789
Orbital period100.34 mins
Loading maneuver chart data...
Loading historical data...
Loading historical data...
Loading historical data...
Loading historical data...
Loading historical data...
Loading historical data...
Loading historical data...

IRIDIUM 103 Visibility forecast

Observer location: undefined°, undefined

Span
Click to sort rows by Start time (UTC) header in descending order
Start Az.
Max El. time (UTC)
Max El. Az.
Max El.
End time (UTC)
End Az.
8 mins2024-12-26 20:53:16.557Z143.178° SSE2024-12-26 20:57:16.557Z80.51° E29.011°2024-12-26 21:01:16.557Z23.97° NE
6 mins2024-12-26 22:35:16.557Z240.22° WSW2024-12-26 22:38:16.557Z289.288° WNW23.277°2024-12-26 22:41:16.557Z330.553° NNW
9 mins2024-12-27 09:04:16.557Z1.256° NNE2024-12-27 09:08:16.557Z104.692° ESE44.499°2024-12-27 09:13:16.557Z174.753° S
|